Location: Dover
(48.8500°N, 53.9833°W)
Time: 17:06:37
(UTC+00:00)

Cosmos 2084 Rocket - Pass Details

Date: 14 November 2025
Orbit: 548 x 566 km, 62.8° (Epoch: 12 December)

Event Time Altitude Azimuth Distance (km) Brightness Sun altitude
Rises 21:31:25 0° 230° (SW) 2,733 8.0 -15.6°
Reaches altitude 10° 21:33:38 10° 233° (SW) 1,845 7.0 -15.9°
Maximum altitude 21:37:46 64° 316° (NW) 627 3.7 -16.6°
Enters shadow 21:40:18 23° 33° (NNE) 1,239 4.7 -17.0°
